Regional Weather Roundup
Issued by NWS Cleveland, OH

Home | Current Version | Previous Version | Text Only | Print | Product List | Glossary On
Versions: 1 2 3 4 5 6 7 8 9 10 11 12 13 14 15 16 17 18 19 20 21 22 23 24 25 26 27 28 29 30 31 32 33 34 35 36 37 38 39 40 41 42 43 44 45 46 47 48 49 50
574
ASUS41 KCLE 200902
RWRCLE
OHIO REGIONAL WEATHER ROUNDUP
NATIONAL WEATHER SERVICE CLEVELAND, OH
500 AM EDT FRI APR 20 2018

NOTE: "FAIR" INDICATES FEW OR NO CLOUDS BELOW 12,000 FEET WITH NO
SIGNIFICANT WEATHER AND/OR OBSTRUCTIONS TO VISIBILITY.

OHZ001>008-015>018-024>027-034-035-043-044-201000-
   NORTHWEST OHIO

CITY           SKY/WX    TMP DP  RH WIND       PRES   REMARKS
DEFIANCE       FAIR      32  24  72 W3        30.41R
FINDLAY        FAIR      32  25  75 W3        30.38R
TOLEDO EXPRESS FAIR      34  22  61 NW5       30.39R WCI  30
TOLEDO EXEC    FAIR      32  23  69 NW7       30.39R WCI  26
LIMA           FAIR      31  28  89 W6        30.38R WCI  25
$$

OHZ009>014-019>023-028>033-038-089-201000-
   NORTHEAST OHIO

CITY           SKY/WX    TMP DP  RH WIND       PRES   REMARKS
CLE-HOPKINS    FAIR      29  24  82 W5        30.38R WCI  24
CLE-LAKEFRONT  FAIR      38  31  76 NW16      30.34R
CUY CO. ARPT   NOT AVBL
LORAIN-ELYRIA  FAIR      29  22  75 NW12      30.36R WCI  19
ASHTABULA      FAIR      34  27  75 NW7       30.32R WCI  28
AKRON-CANTON   FAIR      29  22  75 W7        30.33R WCI  22
WOOSTER        FAIR      27  24  89 W5        30.34S WCI  22
MANSFIELD      FAIR      30  26  85 W5        30.34S WCI  25
YOUNGSTOWN     FAIR      28  20  71 NW5       30.30R WCI  23
$$

OHZ042-051>053-060>062-070>072-077>081-201000-
  SOUTHWEST OHIO

CITY           SKY/WX    TMP DP  RH WIND       PRES   REMARKS
CINC-COVINGTON FAIR      36  27  69 N8        30.39R
CINC-LUNKEN    FAIR      36  30  79 N3        30.41R
HAMILTON       FAIR      31  28  89 CALM      30.42R
DAYTON         FAIR      31  29  92 NW5       30.39R WCI  26
WRIGHT-PAT AFB FAIR      34  28  78 N3        30.38R
DAYTON GENERAL FAIR      36  28  73 N5        30.38R
WILMINGTON     FAIR      33  30  88 N5        30.37R WCI  29
$$

OHZ036-037-039>041-045>050-054>059-063>069-073>076-082>088-201000-
  CENTRAL AND SOUTHEAST OHIO

CITY           SKY/WX    TMP DP  RH WIND       PRES   REMARKS
COLUMBUS       FAIR      33  26  75 CALM      30.37R
OSU AIRPORT    FAIR      30  26  85 W5        30.37R WCI  25
BOLTON FIELD   FAIR      30  27  90 CALM      30.38R
RICKENBACK AFB NOT AVBL
NEWARK         FAIR      30  25  81 CALM      30.36S
MARION         FAIR      28  25  88 W3        30.37S
LANCASTER      FAIR      30  27  88 CALM      30.38R
ZANESVILLE     FAIR      31  22  69 CALM      30.36R
NEW PHILLY     FAIR      28  22  78 CALM      30.35R
$$




USA.gov is the U.S. government's official web portal to all federal, state and local government web resources and services.